Location: San Antonio
(29.4240°N, 98.4930°W)
Time: 18:23:06
(UTC-05:00)

ZACube-1 - Pass Details

Date: 11 August 2024
Orbit: 561 x 628 km, 97.7° (Epoch: 15 September)

Event Time Altitude Azimuth Distance (km) Brightness Sun altitude
Rises 05:16:15 0° 351° (N) 2,917 ? -21.3°
Reaches altitude 10° 05:18:58 10° 334° (NNW) 2,012 ? -20.8°
Enters shadow 05:21:01 17° 307° (NW) 1,577 ? -20.4°
